Location: *
(51.8167°N, 12.5000°E)
Time: 15:36:56
(UTC+00:00)

Cosmos 407 Rocket - Pass Details

Date: 16 September 2019
Orbit: 744 x 786 km, 74.0° (Epoch: 20 October)

Event Time Altitude Azimuth Distance (km) Brightness Sun altitude
Rises 19:24:48 0° 333° (NNW) 3,211 7.7 -18.6°
Reaches altitude 10° 19:27:11 10° 330° (NNW) 2,278 6.8 -19.0°
Maximum altitude 19:32:17 65° 250° (WSW) 822 3.7 -19.6°
Enters shadow 19:35:13 25° 175° (S) 1,475 4.6 -20.0°
